Weather History for Cleveland Burke, OH

Change the Weather History Date:

Tuesday, March 12, 2013

  Actual Average Record
Temperature  
Mean Temperature 36 °F -  
Max Temperature 39 °F 40 °F 62 °F (2012)
Min Temperature 33 °F 27 °F 14 °F (2014)
Degree Days  
Heating Degree Days 29    
Moisture  
Dew Point 30 °F    
Average Humidity 77    
Maximum Humidity 87    
Minimum Humidity 70    
Precipitation  
Precipitation 0.00 in - - ()
Sea Level Pressure  
Sea Level Pressure 29.87 in    
Wind  
Wind Speed 15 mph (WSW)    
Max Wind Speed 20 mph    
Max Gust Speed 28 mph    
Visibility 10 miles    
Events Snow    
Averages and records for this station are not official NWS values.
T = Trace of Precipitation, MM = Missing Value Source: NWS Daily Summary

Daily Weather History Graph

Daily Weather History Graph

Search for Another Location

Airport:

Trip Planner

Search our weather history database for the weather conditions in past years. The results will help you decide how hot, cold, wet, or windy it might be!

Date:

Astronomy

Mar. 12, 2013 Rise Set
Actual Time 7:43 AM EDT 7:30 PM EDT
Civil Twilight 7:15 AM EDT 7:57 PM EDT
Nautical Twilight 6:43 AM EDT 8:30 PM EDT
Astronomical Twilight 6:10 AM EDT 9:02 PM EDT
Moon 7:47 AM EDT (3/12) 8:45 PM EDT (3/12)
Length of Visible Light 12h 42m
Length of Day
11h 47m
New Moon, 1% of the Moon is Illuminated
Mar 12
New Moon
Mar 19
First Quarter
Mar 27
Full
Apr 3
Last Quarter
Apr 10
New

Hourly Weather History & Observations

Time (EDT) Temp. Windchill Dew Point Humidity Pressure Visibility Wind Dir Wind Speed Gust Speed Precip Events Conditions
12:22 AM 39.2 °F 33.0 °F 33.8 °F 81% 29.75 in 10.0 mi West 9.2 mph - N/A   Overcast
12:53 AM 39.0 °F 29.3 °F 33.1 °F 79% 29.77 in 10.0 mi West 19.6 mph - N/A   Overcast
1:32 AM 37.4 °F 28.2 °F 32.0 °F 81% 29.77 in 10.0 mi WSW 16.1 mph - N/A   Overcast
1:53 AM 39.0 °F 29.9 °F 30.9 °F 73% 29.78 in 10.0 mi WSW 17.3 mph 27.6 mph N/A   Overcast
2:17 AM 39.2 °F 31.6 °F 32.0 °F 75% 29.78 in 10.0 mi WSW 12.7 mph - N/A   Overcast
2:53 AM 39.0 °F 29.6 °F 30.9 °F 73% 29.80 in 10.0 mi SW 18.4 mph - N/A   Overcast
3:30 AM 37.4 °F 28.2 °F 32.0 °F 81% 29.79 in 10.0 mi WSW 16.1 mph - N/A   Overcast
3:50 AM 37.4 °F 29.3 °F 30.2 °F 75% 29.80 in 10.0 mi WSW 12.7 mph - N/A   Overcast
3:53 AM 37.9 °F 29.6 °F 32.0 °F 79% 29.81 in 10.0 mi WSW 13.8 mph - N/A   Overcast
4:53 AM 37.0 °F 27.0 °F 30.9 °F 79% 29.81 in 10.0 mi WSW 18.4 mph 26.5 mph N/A   Overcast
5:10 AM 37.4 °F 28.5 °F 30.2 °F 75% 29.81 in 10.0 mi WSW 15.0 mph 23.0 mph N/A   Overcast
5:38 AM 37.4 °F 28.5 °F 30.2 °F 75% 29.81 in 10.0 mi SW 15.0 mph - N/A   Overcast
5:45 AM 37.4 °F 27.8 °F 30.2 °F 75% 29.81 in 10.0 mi SW 17.3 mph 24.2 mph N/A   Overcast
5:53 AM 37.0 °F 27.7 °F 30.0 °F 76% 29.82 in 10.0 mi SW 16.1 mph 26.5 mph N/A   Overcast
6:32 AM 37.4 °F 29.3 °F 30.2 °F 75% 29.82 in 10.0 mi SW 12.7 mph - N/A   Overcast
6:53 AM 37.0 °F 28.1 °F 30.0 °F 76% 29.84 in 10.0 mi WSW 15.0 mph 24.2 mph N/A   Overcast
7:18 AM 37.4 °F 28.5 °F 30.2 °F 75% 29.84 in 10.0 mi SW 15.0 mph - N/A   Overcast
7:44 AM 35.6 °F 26.6 °F 30.2 °F 81% 29.84 in 10.0 mi SW 13.8 mph 23.0 mph N/A   Overcast
7:53 AM 36.0 °F 28.0 °F 30.9 °F 82% 29.86 in 10.0 mi SW 11.5 mph - N/A   Overcast
8:41 AM 35.6 °F 26.2 °F 30.2 °F 81% 29.86 in 10.0 mi SW 15.0 mph - N/A   Overcast
8:53 AM 36.0 °F 26.3 °F 30.9 °F 82% 29.88 in 10.0 mi WSW 16.1 mph - N/A   Overcast
9:02 AM 33.8 °F 23.2 °F 30.2 °F 87% 29.87 in 5.0 mi WSW 17.3 mph - 0.00 in Snow Light Snow
9:53 AM 35.1 °F 26.9 °F 30.9 °F 85% 29.88 in 10.0 mi WSW 11.5 mph - 0.00 in   Overcast
10:53 AM 36.0 °F 26.0 °F 28.9 °F 76% 29.90 in 10.0 mi WSW 17.3 mph - N/A   Overcast
11:53 AM 37.0 °F 28.1 °F 30.0 °F 76% 29.90 in 10.0 mi WSW 15.0 mph - N/A   Overcast
12:53 PM 36.0 °F 28.0 °F 28.9 °F 76% 29.91 in 10.0 mi WSW 11.5 mph - N/A   Overcast
1:53 PM 37.0 °F 28.5 °F 30.9 °F 79% 29.91 in 10.0 mi WSW 13.8 mph - N/A   Overcast
2:53 PM 36.0 °F 26.7 °F 28.9 °F 76% 29.91 in 10.0 mi SW 15.0 mph - N/A   Overcast
3:45 PM 37.4 °F 27.8 °F 28.4 °F 70% 29.89 in 10.0 mi WSW 17.3 mph - N/A   Overcast
3:53 PM 37.0 °F 28.5 °F 28.9 °F 73% 29.91 in 10.0 mi West 13.8 mph - N/A   Overcast
4:04 PM 35.6 °F 25.5 °F 30.2 °F 81% 29.89 in 9.0 mi West 17.3 mph - N/A   Overcast
4:17 PM 35.6 °F 25.9 °F 30.2 °F 81% 29.89 in 10.0 mi WSW 16.1 mph - N/A   Overcast
4:46 PM 35.6 °F 27.5 °F 30.2 °F 81% 29.89 in 10.0 mi West 11.5 mph - N/A   Overcast
4:53 PM 35.1 °F 27.4 °F 30.0 °F 82% 29.91 in 10.0 mi West 10.4 mph 19.6 mph N/A   Overcast
5:09 PM 35.6 °F 25.5 °F 28.4 °F 75% 29.89 in 10.0 mi WSW 17.3 mph - N/A   Overcast
5:53 PM 36.0 °F 26.3 °F 27.0 °F 70% 29.92 in 10.0 mi WSW 16.1 mph 23.0 mph N/A   Overcast
6:43 PM 35.6 °F 25.9 °F 28.4 °F 75% 29.91 in 10.0 mi WSW 16.1 mph - N/A   Overcast
6:53 PM 35.1 °F 26.4 °F 28.0 °F 76% 29.94 in 10.0 mi West 12.7 mph - N/A   Overcast
7:53 PM 35.1 °F 24.1 °F 27.0 °F 72% 29.96 in 10.0 mi West 19.6 mph - N/A   Overcast
8:24 PM 33.8 °F 22.8 °F 26.6 °F 75% 29.95 in 10.0 mi WSW 18.4 mph 25.3 mph N/A   Overcast
8:53 PM 34.0 °F 24.2 °F 26.1 °F 73% 29.98 in 10.0 mi WSW 15.0 mph - N/A   Overcast
9:53 PM 34.0 °F 27.2 °F 25.0 °F 70% 29.97 in 10.0 mi SW 8.1 mph - N/A   Overcast
10:53 PM 35.1 °F 26.9 °F 26.1 °F 70% 29.97 in 10.0 mi SSW 11.5 mph - N/A   Overcast
11:53 PM 33.1 °F 26.1 °F 26.1 °F 75% 29.96 in 10.0 mi South 8.1 mph - N/A   Clear